CAPE
2850 2886 2926 2965 2946 2876 2809 2766 2747 2707 2676 2653 2618 2579 2586 2518 2508 2478 2339 2248 2190 2112 1950 1898 1891 1831 1664 1526 1452 1382 1326 1388 1464 1523 1534 1551 1583 1651 1771 1874 1942 2003 2012 2036 2030 1982 1902 1908 1928 1914 1823 1822 1645 1442 1184 935 724 596 473 371 354 389 282 29 0 7 0 0 0 0 0 0 0 0 0 0 0 0 0 0 0 0 0 0 0
2856 2848 2883 2882 2901 2904 2784 2719 2732 2722 2687 2657 2609 2611 2570 2519 2428 2403 2370 2336 2259 2184 1981 1861 1809 1762 1635 1554 1472 1386 1310 1274 1351 1413 1472 1494 1527 1589 1737 1888 1980 2036 2072 2082 2126 2118 2069 2018 1980 1911 1881 1787 1525 1291 1031 804 666 553 474 227 161 186 120 14 23 3 0 0 0 0 0 0 0 0 0 0 0 0 0 0 0 0 0 0 0
2861 2868 2847 2841 2850 2855 2807 2701 2678 2708 2712 2681 2644 2627 2578 2552 2375 2369 2338 2258 2204 2107 1965 1778 1684 1640 1570 1528 1466 1402 1395 1405 1375 1401 1468 1508 1514 1539 1663 1840 1945 2044 2094 2159 2161 2132 2092 2036 1999 1959 1894 1662 1410 1146 954 527 452 354 128 4 39 82 56 19 47 1 0 0 0 0 0 0 0 0 0 0 0 0 0 0 0 0 0 0 0
2801 2828 2806 2803 2814 2829 2766 2703 2659 2638 2648 2634 2608 2570 2560 2547 2488 2406 2262 2135 2098 2068 1918 1792 1685 1624 1540 1529 1558 1600 1566 1522 1468 1506 1548 1568 1520 1500 1545 1721 1901 2014 2123 2161 2167 2113 2071 2066 2052 2034 1806 1560 1366 1236 726 389 328 1 1 1 18 44 47 18 42 0 0 0 0 0 0 0 0 0 0 0 0 0 0 0 0 0 0 0 0
2800 2801 2799 2800 2824 2817 2766 2680 2608 2588 2573 2550 2520 2516 2524 2515 2470 2316 2158 2041 2036 1980 1906 1888 1850 1796 1786 1827 1844 1757 1665 1603 1597 1577 1582 1592 1560 1496 1506 1650 1866 2035 2140 2163 2140 2137 2136 2131 2106 1991 1753 1516 1406 1181 271 132 1 2 0 16 54 47 20 12 6 0 0 0 0 0 0 0 0 0 0 0 0 0 0 0 0 0 0 0 0
2787 2799 2790 2800 2790 2768 2734 2652 2595 2566 2534 2447 2428 2425 2427 2410 2335 2307 2206 1979 1981 1971 1974 1981 1976 1997 2044 2016 1904 1826 1777 1750 1742 1698 1653 1626 1622 1584 1606 1676 1882 2059 2151 2174 2133 2159 2170 2152 2109 1948 1721 1550 1436 689 29 0 2 1 0 39 30 6 2 1 0 0 0 0 0 0 0 0 0 0 0 0 0 0 0 0 0 0 0 0 0
2740 2763 2770 2768 2715 2672 2654 2641 2579 2520 2490 2412 2340 2352 2387 2389 2392 2348 2274 2217 2090 2065 2076 2079 2088 2127 2134 2077 1994 1926 1914 1930 1875 1786 1765 1741 1715 1698 1731 1807 1953 2055 2129 2146 2149 2182 2140 2104 2012 1854 1678 1559 1260 214 0 1 1 1 0 7 2 0 0 0 0 0 0 0 0 0 0 0 0 0 0 0 0 0 0 0 0 0 0 0 0
2683 2716 2721 2699 2649 2627 2633 2597 2573 2496 2471 2436 2392 2362 2405 2479 2511 2455 2418 2464 2400 2324 2271 2226 2232 2235 2157 2108 2089 2061 2083 2080 2015 1986 1929 1860 1813 1780 1766 1836 1888 1953 2002 2066 2145 2194 2148 2130 1991 1803 1632 1441 613 0 0 1 1 1 0 2 1 0 0 0 0 0 0 0 0 0 0 0 0 0 0 0 0 0 0 0 0 0 0 0 0
2589 2634 2615 2576 2586 2619 2610 2590 2544 2520 2489 2478 2447 2439 2437 2468 2517 2507 2552 2608 2661 2657 2633 2574 2494 2385 2299 2218 2199 2210 2216 2216 2259 2345 2360 2221 1914 1864 1796 1790 1794 1838 1973 2157 2190 2188 2216 2135 1942 1744 1578 1154 87 0 0 0 0 1 0 2 1 0 0 0 0 0 0 0 0 0 0 0 0 0 0 0 0 0 0 0 0 0 0 0 0
2588 2600 2508 2513 2539 2500 2483 2512 2548 2515 2500 2490 2494 2480 2488 2477 2490 2582 2637 2703 2777 2797 2798 2710 2656 2588 2511 2432 2389 2404 2421 2424 2569 2788 2771 2646 2286 2008 1908 1864 1912 2058 2208 2268 2238 2229 2205 2068 1878 1684 1462 706 0 0 0 0 0 0 0 0 0 0 0 0 0 0 0 0 0 0 0 0 0 0 0 0 0 0 0 0 0 1 0 1 0
2269 2517 2564 2336 2029 2160 2318 2401 2427 2413 2403 2444 2486 2475 2425 2521 2616 2689 2753 2793 2830 2839 2750 2771 2760 2696 2637 2578 2557 2559 2591 2625 2755 2944 2951 2816 2564 2200 2054 2044 2144 2269 2302 2339 2321 2271 2176 1999 1804 1603 1198 311 0 0 0 0 0 0 0 0 0 0 0 0 0 0 0 0 0 0 0 0 0 0 0 0 0 0 0 3 5 2 2 2 3
1823 1909 1876 1801 1852 1963 2143 2268 2318 2339 2369 2390 2432 2448 2495 2642 2714 2751 2809 2827 2871 2871 2798 2819 2843 2813 2782 2794 2822 2829 2836 2870 2930 3040 3035 2941 2801 2473 2224 2242 2336 2374 2374 2385 2372 2312 2203 1988 1766 1427 815 0 0 0 0 0 0 0 0 0 0 0 0 0 0 0 0 0 0 0 0 0 0 0 0 0 0 0 0 3 7 6 4 4 1
1519 1678 1752 1838 1944 2076 2207 2346 2390 2437 2495 2490 2475 2470 2501 2591 2685 2784 2807 2882 2923 2927 2930 2908 2926 2947 2963 2989 3013 2995 2971 2987 3012 3065 3079 3053 2997 2842 2502 2392 2457 2509 2521 2484 2446 2381 2216 1952 1654 1285 618 36 0 0 0 0 0 0 0 0 0 0 0 0 0 0 0 0 0 0 0 0 0 0 0 0 0 0 0 0 10 16 8 3 2
1741 1547 1738 1853 1904 2039 2238 2464 2603 2718 2722 2690 2708 2622 2613 2583 2692 2711 2775 2833 2890 2899 2907 2973 3014 3076 3085 3089 3088 3058 3040 3044 3054 3074 3105 3097 3057 2952 2813 2533 2537 2560 2563 2553 2506 2421 2205 1910 1533 1083 428 0 0 0 0 0 0 0 0 0 0 0 0 0 0 0 0 0 0 0 0 0 0 0 0 0 0 0 0 2 7 17 16 8 0
1946 1801 1679 1797 2026 2302 2581 2600 2180 1678 1267 1284 1262 1869 2541 2689 2678 2706 2729 2795 2851 2864 2921 2990 3048 3104 3119 3109 3088 3068 3045 3016 3000 3035 3067 3030 2990 2954 2959 2685 2595 2572 2594 2584 2542 2448 2178 1767 1385 846 292 0 0 0 0 0 0 0 0 0 0 0 0 0 0 0 0 0 0 0 0 0 0 0 0 0 0 0 0 0 4 8 10 8 0
1927 2152 2123 2187 2358 2553 2441 1447 708 404 543 607 566 865 1864 2593 2752 2756 2740 2766 2800 2830 2884 2935 2996 3038 3074 3086 3051 3034 2984 2941 2967 3000 2989 2855 2748 2846 2921 2855 2643 2614 2642 2631 2546 2406 2090 1666 1214 816 303 11 0 0 0 0 0 0 0 0 0 0 0 0 0 0 0 0 0 0 0 0 0 0 0 0 0 0 0 0 0 0 0 0 0
1549 1926 2210 2388 2337 2117 1705 987 678 652 831 877 1052 1620 2226 2626 2653 2726 2766 2787 2808 2797 2814 2866 2911 2954 2962 2968 2981 2936 2868 2866 2891 2930 2938 2864 2782 2785 2866 2797 2343 2324 2258 2610 2609 2447 2056 1654 1382 968 482 83 0 0 0 0 0 0 0 0 0 0 0 0 0 0 0 0 0 0 0 0 0 0 0 0 0 0 0 0 0 0 0 0 0
1267 1550 1756 1952 2104 2052 1800 1533 1252 1282 1403 1771 2211 2567 2774 2258 2298 2521 2650 2743 2882 2899 2860 2799 2846 2898 2908 2908 2876 2837 2796 2794 2803 2810 2784 2744 2782 2832 2855 2334 2346 2185 2133 2350 2528 2488 2148 1681 1481 1136 683 218 0 0 0 0 0 0 0 0 0 0 0 0 0 0 0 0 0 0 0 0 0 0 0 0 0 0 0 0 0 0 0 0 0
934 1367 1609 1757 1962 2192 2333 2265 1964 1905 2328 2706 2853 2806 2423 1868 2153 2439 2635 2831 2997 3051 2933 2794 2776 2845 2888 2879 2839 2782 2740 2715 2697 2647 2661 2698 2774 2860 2882 2474 2070 2062 1983 2218 2290 2380 2180 1742 1503 1248 894 449 34 0 0 0 0 0 0 0 0 0 0 0 0 0 0 0 0 0 0 0 0 0 0 0 0 0 0 0 0 0 0 0 0
649 1128 1548 1843 2016 2197 2466 2666 2588 2626 2821 2871 2792 2257 1712 1989 2279 2543 2824 3010 3097 3028 2876 2834 2779 2802 2849 2855 2842 2822 2801 2776 2748 2738 2709 2713 2749 2787 2872 2930 2399 2144 2109 2163 2383 2522 2169 1805 1551 1193 982 681 327 0 0 0 0 0 0 0 0 0 0 0 0 0 0 0 0 0 0 0 0 0 0 0 0 0 0 0 0 0 0 0 0
402 833 1362 1691 1909 2138 2451 2616 2664 2730 2164 1464 1334 1520 1802 2088 2391 2694 2878 2992 3027 2957 2880 2847 2806 2773 2789 2796 2794 2794 2788 2782 2790 2768 2737 2708 2688 2656 2727 2720 2623 2324 2031 1919 2182 2373 2296 1956 1435 1167 1058 887 549 252 0 0 0 0 0 0 0 0 0 0 0 0 0 0 0 0 0 0 0 0 0 0 0 0 0 0 0 0 0 0 0
242 535 945 1283 1492 1841 2202 2482 2598 2652 2329 1519 1590 1694 1900 2216 2462 2523 2649 2774 2869 2877 2824 2804 2763 2729 2730 2737 2747 2782 2767 2740 2752 2732 2709 2669 2584 2536 2607 2628 2567 2496 2400 2240 2093 2092 2064 1472 1258 1140 1108 1017 846 579 128 0 0 0 0 0 0 0 0 0 0 0 0 0 0 0 0 0 0 0 0 0 0 0 0 0 0 0 0 0 0
110 394 667 886 1023 1164 1257 1389 1517 1684 1917 2025 2054 2158 2324 2479 2613 2672 2676 2637 2610 2590 2568 2592 2605 2586 2596 2618 2695 2762 2776 2766 2747 2722 2678 2628 2568 2491 2514 2597 2592 2478 2260 2257 2074 2075 2013 1487 1284 1213 1160 1059 951 855 658 425 52 0 0 0 0 0 0 0 0 0 0 0 0 0 0 0 0 0 0 0 0 0 0 0 0 0 0 0 0
0 361 675 811 775 786 962 1286 1591 1876 2137 2337 2478 2581 2589 2571 2542 2469 2401 2356 2308 2284 2300 2327 2300 2271 2282 2302 2389 2531 2657 2742 2746 2717 2673 2625 2599 2575 2616 2658 2645 2577 2614 2303 2278 2099 1909 1663 1360 1278 1228 1016 892 887 786 653 505 376 0 0 0 0 0 0 0 0 0 0 0 0 0 0 0 0 0 0 0 0 0 0 0 0 0 0 0
0 202 494 702 784 954 1195 1389 1628 1899 2163 2418 2441 2188 1997 1972 2065 2106 2138 2140 2130 2090 2035 2026 2044 2083 2091 2130 2147 2222 2370 2472 2563 2589 2610 2639 2618 2655 2706 2740 2703 2635 2606 2639 2603 2096 2004 1669 1615 1523 1153 901 808 734 724 679 591 465 350 113 0 0 0 0 0 0 0 0 0 0 0 0 0 0 0 0 0 0 0 0 0 0 0 0 0
0 0 67 186 338 603 883 1007 1000 909 865 1035 1148 1238 1313 1431 1527 1670 1812 1903 1960 1984 1962 1928 1925 1963 1992 1996 2036 2070 2147 2202 2248 2303 2337 2387 2423 2473 2568 2628 2624 2494 2270 2282 2379 2445 2343 1988 1808 1506 1081 684 677 719 776 720 551 430 358 0 0 0 0 0 0 0 0 0 0 0 0 0 0 0 0 0 0 0 0 0 0 0 0 0 0
0 0 0 0 114 136 153 218 344 503 666 828 924 1001 1101 1243 1359 1507 1670 1770 1836 1884 1848 1892 1937 1970 1996 1986 2008 2042 2060 2080 2114 2114 2107 2118 2181 2213 2248 2301 2391 2388 2299 2210 2050 1883 2039 1878 1606 1009 1185 981 741 857 943 735 534 438 341 216 0 0 0 0 0 0 0 0 0 0 0 0 0 0 0 0 0 0 0 0 0 0 0 0 0
203 179 156 95 121 202 256 340 452 557 694 795 862 921 1025 1140 1198 1280 1451 1557 1544 1565 1574 1646 1725 1797 1860 1904 1961 2043 2086 2062 2018 1989 1965 1966 1992 2016 2065 2199 2303 2260 2136 2031 1995 1930 1844 1845 1760 1339 1180 1076 864 874 866 680 498 411 354 137 0 0 0 0 0 0 0 0 0 0 0 0 0 0 0 0 0 0 0 0 0 0 0 0 0
160 153 165 215 254 298 323 310 254 282 380 494 520 573 713 846 827 848 890 952 986 999 1098 1161 1194 1282 1339 1434 1563 1731 1835 1817 1734 1663 1645 1680 1774 1822 1904 2014 2124 2237 2203 2120 1909 1684 1613 1722 2061 1938 862 1035 851 864 812 674 551 478 370 0 0 0 0 0 0 0 0 0 0 0 0 0 0 0 0 0 0 0 0 0 0 0 0 0 0
364 322 314 318 321 307 289 252 177 102 194 298 322 319 322 388 446 363 373 530 495 511 413 518 662 766 829 979 1150 1304 1359 1363 1340 1251 1340 1440 1481 1501 1610 1720 1875 2004 2082 2111 1945 1771 1624 1642 1647 1691 1396 1002 1065 896 804 671 591 559 518 315 0 0 0 0 0 0 0 0 0 0 0 0 0 0 0 0 0 0 0 0 0 0 0 0 0
245 234 220 202 183 157 131 106 74 14 0 0 0 22 48 0 0 0 0 0 0 0 0 0 0 385 471 572 752 1026 1162 1140 981 899 998 1132 1137 1162 1342 1490 1615 1819 1872 1710 1621 1499 1437 1375 1497 1619 1694 1600 1379 1150 933 698 471 482 581 616 346 17 0 0 0 0 0 0 0 0 0 0 0 0 0 0 0 0 0 0 0 0 0 0 0
0 0 0 0 0 0 0 0 0 0 0 0 0 0 0 0 0 0 0 0 0 0 0 0 0 165 559 621 680 767 929 1066 1124 1139 1070 964 980 1078 1252 1339 1457 1837 1825 1507 1458 1421 1344 1397 1399 1490 1584 1610 1494 1171 978 823 432 369 554 714 588 343 0 0 0 0 6 3 0 0 4 17 23 6 0 0 0 0 0 0 0 0 0 0 0
0 0 0 0 0 0 0 0 0 0 0 0 0 0 0 0 0 0 0 0 0 65 235 300 198 0 445 701 852 861 845 894 1040 1105 1129 1227 1348 1492 1583 1592 1641 1824 1710 1514 1395 1370 1462 1397 1347 1360 1402 1467 1444 1240 1038 889 673 465 488 627 604 488 304 0 0 0 0 0 0 0 6 28 33 25 0 0 0 0 0 0 0 0 0 0 0
0 0 0 0 0 0 0 0 0 0 0 0 0 0 0 0 0 0 0 0 0 140 382 486 627 743 729 718 726 864 995 1085 1218 1362 1454 1549 1612 1665 1714 1298 1596 1504 1440 1397 1368 1464 1432 1318 1198 1117 1117 1166 1229 1213 1118 972 798 643 514 505 498 393 299 18 0 0 0 0 0 3 18 32 40 39 10 0 0 0 0 0 0 0 0 0 0
10 0 0 0 0 0 0 0 0 0 0 0 0 0 0 0 0 0 0 0 0 0 3 2 298 566 776 916 970 1016 1116 1264 1382 1460 1530 1577 1550 1558 1647 1445 1089 1137 1056 1132 1243 1298 1287 1248 1172 1084 985 971 1036 1097 1114 1022 868 753 612 602 532 455 291 100 0 0 0 0 0 20 26 29 50 24 15 7 0 0 0 0 0 0 0 0 0
200 144 8 0 0 0 0 0 0 0 0 0 0 0 0 0 0 0 0 0 0 0 0 0 0 0 319 627 794 930 1014 1114 1246 1322 1377 1444 1596 1733 1672 1480 1022 950 1052 1209 1488 1336 1190 1076 1009 929 832 813 933 1116 1163 1021 854 779 629 334 427 459 278 4 0 0 0 0 0 23 29 37 57 23 32 10 2 0 0 0 0 0 0 0 0
90 129 216 72 0 0 0 0 0 0 0 0 0 0 0 0 0 0 0 0 0 0 7 9 0 0 7 412 606 768 891 1045 1160 1245 1329 1468 1607 1663 1582 1563 1286 1143 1198 1249 1523 1464 1252 1114 936 799 689 682 861 1105 1154 1079 956 803 592 530 474 324 136 182 102 0 2 1 0 14 24 38 59 12 11 23 22 1 0 0 0 0 0 0 0
108 118 144 244 276 163 0 0 0 0 0 0 0 0 0 0 0 0 0 0 0 5 190 197 62 318 496 613 554 678 814 944 1045 1166 1282 1352 1432 1435 1247 1195 1147 1153 1232 1301 1372 1484 1387 1181 956 770 659 608 626 688 717 772 789 728 532 314 282 137 9 91 98 30 0 0 1 3 0 29 47 42 37 0 2 0 0 0 0 0 0 0 0
34 139 231 242 263 319 340 307 261 134 0 0 0 0 0 0 0 1 102 221 236 249 271 332 447 601 632 614 582 600 679 774 897 1043 1108 1198 1206 1213 1210 1128 1024 949 1038 1148 1147 1057 1029 1045 1020 979 890 805 733 682 634 633 642 548 392 341 12 39 38 3 77 60 12 3 8 4 6 23 25 38 56 0 0 0 0 0 0 0 0 0 0
0 122 242 272 250 316 354 363 348 249 0 0 0 0 19 19 53 190 201 207 277 358 420 542 602 632 675 734 800 784 654 619 623 675 712 770 853 913 949 998 1117 1195 1080 1040 943 751 735 862 910 842 792 780 798 732 646 570 574 539 389 186 24 0 0 0 27 84 52 2 2 8 11 26 36 21 0 0 0 0 0 0 0 0 0 0 0
31 86 252 348 309 352 404 390 298 240 84 77 160 216 285 406 500 568 621 610 655 713 725 756 825 796 708 643 612 554 520 584 690 741 700 702 699 624 602 655 852 1156 1256 1154 959 776 682 676 703 763 740 669 672 657 486 396 331 296 105 140 82 32 6 10 13 32 69 33 17 17 32 60 51 12 3 2 0 0 0 0 0 0 0 0 0
0 19 140 138 153 100 254 340 377 388 507 546 560 626 661 679 668 672 743 755 709 671 643 588 498 445 500 528 538 502 509 614 686 762 703 615 735 733 641 581 657 862 1120 1192 964 733 760 840 761 607 379 301 344 438 332 251 42 0 0 43 182 71 33 8 11 28 46 14 27 40 41 47 47 3 0 0 0 0 0 0 0 0 0 0 0
52 37 0 10 34 27 4 63 35 247 346 373 533 662 736 761 728 682 656 620 595 522 364 298 309 356 423 443 475 513 537 591 678 720 713 747 791 679 570 529 598 702 781 781 824 848 854 780 584 392 245 201 259 257 162 187 214 282 317 278 267 236 123 64 44 35 50 28 34 38 18 4 4 7 3 2 0 0 0 0 0 0 0 0 0
16 32 77 92 56 19 63 103 32 144 34 153 165 199 267 299 476 500 444 337 274 226 276 325 360 412 501 527 534 586 591 620 668 725 773 750 641 585 504 529 582 592 553 531 642 792 840 809 635 424 272 198 199 254 267 296 333 345 313 303 260 186 148 84 52 35 49 32 5 22 19 11 3 2 2 0 0 0 0 0 0 0 0 0 0
4 4 5 4 2 13 24 30 85 50 34 109 164 281 327 302 252 248 253 186 210 195 217 253 274 289 320 344 322 270 340 415 458 432 340 346 382 437 524 598 438 352 415 498 646 686 666 639 618 545 488 398 344 349 334 302 278 225 218 182 154 184 199 10 17 1 8 8 12 6 3 1 0 0 0 0 0 0 0 0 0 0 0 0 0
2 0 3 6 4 4 9 15 7 8 23 46 48 20 20 0 4 11 24 53 92 15 14 104 206 183 55 15 18 17 16 18 22 29 34 44 61 51 23 133 94 0 0 153 259 321 301 265 218 182 168 147 138 180 178 198 222 199 177 53 48 8 0 1 11 0 0 2 2 0 0 0 0 0 0 0 0 0 0 0 0 0 0 0 0
0 0 0 2 1 2 6 4 7 14 20 22 14 9 3 3 1 0 0 0 1 15 3 7 7 6 6 15 20 23 76 150 139 146 129 90 8 13 16 9 3 0 0 0 45 54 76 74 81 92 96 3 4 16 93 0 0 3 38 40 2 2 1 0 1 0 5 13 4 0 0 0 0 0 0 0 0 0 0 0 0 0 0 0 0
0 0 0 0 0 0 0 1 5 8 9 11 6 11 18 13 0 4 0 6 3 4 4 21 36 14 11 35 49 38 40 47 54 50 82 63 39 44 52 51 64 38 22 0 38 44 83 82 52 13 19 23 24 22 50 20 12 3 0 0 0 0 0 0 0 3 9 6 6 5 2 1 1 0 0 0 0 0 0 0 0 0 0 0 0
0 0 0 0 0 0 1 0 0 0 4 5 8 6 7 6 7 6 5 12 15 7 5 6 3 12 23 31 29 14 5 6 12 14 6 15 38 28 30 26 15 16 34 28 53 20 1 0 0 1 4 5 7 5 0 0 0 0 0 0 0 0 0 0 1 4 4 29 35 35 33 25 13 2 1 1 1 2 0 0 0 0 0 0 0
0 0 0 0 0 0 0 1 2 0 0 0 0 0 3 8 8 7 7 10 16 15 13 11 11 7 5 4 4 2 2 2 4 8 7 5 4 7 14 18 30 16 23 28 15 10 11 16 26 30 20 11 4 2 0 0 0 0 0 0 0 1 1 0 3 1 16 30 29 32 27 25 19 8 6 7 11 11 5 0 0 0 0 0 0
0 0 0 0 0 0 0 0 0 2 4 1 1 1 0 0 0 0 0 0 0 0 0 0 1 1 0 2 4 2 0 0 0 1 1 0 0 0 0 0 0 2 3 5 4 2 2 0 0 0 0 0 0 0 0 0 0 0 0 0 0 0 2 4 2 1 3 6 16 19 18 17 14 12 9 8 9 6 0 0 0 0 0 0 0
Wind_Speed
31 30 34 35 35 33 30 30 30 30 29 26 22 21 22 23 22 25 32 31 36 38 36 33 31 28 24 24 25 27 27 25 24 24 24 22 22 23 24 25 27 28 30 32 32 31 29 26 23 25 27 26 27 27 26 26 26 25 26 25 22 20 20 nan nan nan nan nan nan nan nan nan nan nan nan nan nan nan nan nan nan nan nan nan nan
38 33 34 35 34 34 32 34 36 37 34 29 24 22 28 34 32 30 28 30 35 38 39 38 35 30 26 26 29 30 29 25 24 25 25 24 22 22 23 25 27 29 32 33 33 32 32 29 26 26 27 27 28 29 28 27 26 26 27 26 24 22 20 nan nan nan nan nan nan nan nan nan nan nan nan nan nan nan nan nan nan nan nan nan nan
44 41 38 36 33 34 36 36 38 38 35 31 27 24 26 31 35 32 28 30 33 35 38 41 41 36 31 32 33 32 29 26 25 25 25 24 23 22 22 25 27 30 32 32 34 35 34 31 28 27 26 27 28 29 30 28 27 27 27 nan nan nan nan nan nan nan nan nan nan nan nan nan nan nan nan nan nan nan nan nan nan nan nan nan nan
49 45 43 41 38 36 36 37 38 38 34 32 28 28 29 30 33 31 30 31 30 30 34 38 42 38 32 30 32 32 30 26 25 24 23 23 22 22 23 25 27 29 31 33 35 36 36 34 31 30 28 27 28 29 30 28 27 nan nan nan nan nan nan nan nan nan nan nan nan nan nan nan nan nan nan nan nan nan nan nan nan nan nan nan nan
51 45 44 43 39 36 35 37 37 37 34 32 30 31 32 31 32 30 30 29 28 30 31 34 36 37 34 31 30 32 30 27 24 24 23 23 23 22 23 25 27 29 30 32 34 36 37 36 35 33 30 28 29 30 30 29 nan nan nan nan nan nan nan nan nan nan nan nan nan nan nan nan nan nan nan nan nan nan nan nan nan nan nan nan nan
52 47 45 43 37 32 34 35 33 34 33 33 32 34 33 31 30 31 30 30 31 32 32 31 30 32 35 37 36 35 33 28 25 24 23 24 25 23 22 25 27 29 30 31 34 36 37 38 38 35 32 31 30 30 nan nan nan nan nan nan nan nan nan nan nan nan nan nan nan nan nan nan nan nan nan nan nan nan nan nan nan nan nan nan nan
54 50 49 47 41 35 35 33 30 31 33 34 37 38 36 33 31 30 33 33 35 36 34 30 29 27 28 34 38 37 34 31 28 25 24 25 26 24 23 25 27 29 29 30 33 35 37 39 40 37 33 31 31 31 nan nan nan nan nan nan nan nan nan nan nan nan nan nan nan nan nan nan nan nan nan nan nan nan nan nan nan nan nan nan nan
55 53 51 51 47 41 38 38 37 35 37 38 38 38 38 37 34 35 37 34 34 37 36 32 30 27 23 27 32 35 34 32 29 27 26 27 28 26 25 26 28 29 30 31 32 34 36 39 41 39 35 33 32 nan nan nan nan nan nan nan nan nan nan nan nan nan nan nan nan nan nan nan nan nan nan nan nan nan nan nan nan nan nan nan nan
55 55 53 51 49 46 45 45 46 47 48 48 45 41 39 38 38 39 39 37 36 37 38 36 32 29 26 26 29 32 32 31 30 29 27 27 28 27 26 26 28 30 31 31 31 33 36 38 40 39 36 35 nan nan nan nan nan nan nan nan nan nan nan nan nan nan nan nan nan nan nan nan nan nan nan nan nan nan nan nan nan nan nan nan nan
57 56 54 51 50 50 52 53 54 57 58 56 53 49 44 42 43 41 40 41 40 40 39 37 33 29 28 28 29 31 31 30 29 27 25 25 27 28 28 27 29 31 32 32 31 32 35 38 39 42 40 37 nan nan nan nan nan nan nan nan nan nan nan nan nan nan nan nan nan nan nan nan nan nan nan nan nan nan nan nan nan nan nan nan nan
60 58 55 53 52 54 56 56 58 60 61 58 56 54 49 46 45 44 43 43 42 42 40 35 31 29 28 28 28 29 29 29 29 27 23 24 27 28 29 29 31 33 33 32 32 33 34 36 39 40 40 37 nan nan nan nan nan nan nan nan nan nan nan nan nan nan nan nan nan nan nan nan nan nan nan nan nan nan nan nan nan nan nan nan nan
63 62 60 60 59 58 59 57 58 60 61 58 55 53 51 48 45 44 44 42 41 41 38 33 31 31 30 29 28 28 28 29 30 28 25 25 27 30 32 33 34 34 33 32 33 35 35 37 39 40 39 nan nan nan nan nan nan nan nan nan nan nan nan nan nan nan nan nan nan nan nan nan nan nan nan nan nan nan nan nan nan nan nan nan nan
63 65 66 66 65 66 65 64 65 67 65 62 57 54 50 46 44 42 39 37 38 36 35 34 32 33 32 30 29 30 29 30 30 31 29 27 28 32 35 36 36 34 34 33 34 35 36 37 39 39 39 nan nan nan nan nan nan nan nan nan nan nan nan nan nan nan nan nan nan nan nan nan nan nan nan nan nan nan nan nan nan nan nan nan nan
63 63 64 64 63 62 59 56 57 61 62 62 62 57 51 44 41 39 38 36 34 33 33 31 31 31 31 30 31 33 32 33 33 33 31 30 32 35 37 37 36 36 35 35 35 36 36 37 40 41 41 nan nan nan nan nan nan nan nan nan nan nan nan nan nan nan nan nan nan nan nan nan nan nan nan nan nan nan nan nan nan nan nan nan nan
63 62 61 60 61 62 57 54 55 57 57 55 54 50 46 44 41 40 39 36 35 34 33 32 31 31 31 31 32 32 32 36 36 35 33 33 34 37 38 38 37 37 36 35 35 35 36 37 39 42 44 nan nan nan nan nan nan nan nan nan nan nan nan nan nan nan nan nan nan nan nan nan nan nan nan nan nan nan nan nan nan nan nan nan nan
62 61 60 60 62 62 59 55 57 59 57 54 51 47 44 42 41 41 42 40 38 37 36 35 33 33 33 33 32 31 35 41 39 37 35 35 37 40 40 39 39 39 38 36 36 36 37 39 41 42 43 nan nan nan nan nan nan nan nan nan nan nan nan nan nan nan nan nan nan nan nan nan nan nan nan nan nan nan nan nan nan nan nan nan nan
61 59 58 60 61 62 60 58 59 59 57 55 51 43 39 39 41 44 44 41 39 36 36 36 35 35 35 36 35 34 37 41 41 39 38 37 41 41 42 48 45 37 32 35 37 39 40 41 43 44 44 nan nan nan nan nan nan nan nan nan nan nan nan nan nan nan nan nan nan nan nan nan nan nan nan nan nan nan nan nan nan nan nan nan nan
61 60 58 60 61 61 61 60 59 58 57 54 48 42 39 40 41 45 44 42 39 37 37 38 39 39 38 38 38 38 38 41 40 39 39 40 42 43 49 47 36 33 31 32 36 39 39 43 46 46 45 43 nan nan nan nan nan nan nan nan nan nan nan nan nan nan nan nan nan nan nan nan nan nan nan nan nan nan nan nan nan nan nan nan nan
61 61 59 60 61 61 62 62 60 59 58 53 47 42 42 42 45 48 46 45 43 43 42 41 43 44 41 39 39 39 39 42 40 41 40 40 41 47 49 41 34 32 35 34 35 37 37 39 44 45 45 44 nan nan nan nan nan nan nan nan nan nan nan nan nan nan nan nan nan nan nan nan nan nan nan nan nan nan nan nan nan nan nan nan nan
60 59 60 61 60 60 62 63 62 58 55 51 46 42 46 49 50 51 50 49 49 51 52 49 47 45 44 42 42 40 39 42 41 38 39 38 41 47 49 43 37 35 36 37 39 37 38 39 40 43 45 47 47 nan nan nan nan nan nan nan nan nan nan nan nan nan nan nan nan nan nan nan nan nan nan nan nan nan nan nan nan nan nan nan nan
62 61 62 62 60 58 59 61 62 59 58 55 50 46 47 50 52 53 53 53 54 55 56 55 52 49 47 44 43 40 38 39 40 35 35 38 43 46 47 41 40 42 40 39 39 39 40 42 43 45 47 47 47 46 nan nan nan nan nan nan nan nan nan nan nan nan nan nan nan nan nan nan nan nan nan nan nan nan nan nan nan nan nan nan nan
68 67 67 64 61 59 58 60 62 62 62 63 60 54 50 51 52 52 54 55 54 53 54 55 54 53 50 47 45 41 38 35 42 37 35 39 43 43 47 41 43 47 45 40 40 39 42 47 47 49 51 48 47 46 43 nan nan nan nan nan nan nan nan nan nan nan nan nan nan nan nan nan nan nan nan nan nan nan nan nan nan nan nan nan nan
72 70 69 68 65 62 61 61 62 64 64 64 63 57 55 53 53 54 55 56 56 55 55 55 55 54 52 50 49 46 43 41 40 41 38 40 42 42 41 42 48 53 46 40 40 40 44 46 47 52 53 49 46 45 43 41 nan nan nan nan nan nan nan nan nan nan nan nan nan nan nan nan nan nan nan nan nan nan nan nan nan nan nan nan nan
nan 71 70 68 66 65 64 64 65 66 65 64 61 58 56 55 55 55 55 54 54 53 53 53 53 54 51 49 49 48 47 46 44 42 43 42 44 43 40 40 52 52 48 43 44 45 45 45 48 54 54 49 46 45 43 43 39 36 nan nan nan nan nan nan nan nan nan nan nan nan nan nan nan nan nan nan nan nan nan nan nan nan nan nan nan
nan 67 67 67 65 63 63 64 65 66 65 65 64 61 59 58 56 55 54 51 49 48 49 50 51 51 50 47 46 46 47 47 49 47 47 47 46 45 43 43 48 52 50 46 47 49 47 46 47 53 53 50 46 45 44 42 40 38 37 39 nan nan nan nan nan nan nan nan nan nan nan nan nan nan nan nan nan nan nan nan nan nan nan nan nan
nan nan nan 64 63 63 62 61 62 63 65 64 64 61 59 57 55 54 52 48 46 47 49 51 52 52 50 48 45 44 45 47 47 50 51 50 49 47 46 46 47 50 49 47 46 47 48 46 47 50 49 47 47 48 45 43 40 37 37 nan nan nan nan nan nan nan nan nan nan nan nan nan nan nan nan nan nan nan nan nan nan nan nan nan nan
nan nan nan nan 64 63 62 61 62 64 65 66 66 64 61 58 57 56 52 48 47 48 50 51 53 52 49 47 45 45 46 45 46 48 50 50 52 52 53 51 49 52 53 51 51 50 50 52 52 49 49 49 46 44 43 44 43 40 39 37 nan nan nan nan nan nan nan nan nan nan nan nan nan nan nan nan nan nan nan nan nan nan nan nan nan
59 58 59 nan 61 61 61 61 62 62 63 64 64 63 61 60 60 58 54 49 48 49 48 48 48 48 48 47 46 47 46 45 44 44 45 48 50 52 53 54 57 55 50 50 49 53 58 57 56 54 54 53 48 47 43 44 44 45 41 38 nan nan nan nan nan nan nan nan nan nan nan nan nan nan nan nan nan nan nan nan nan nan nan nan nan
57 58 58 59 58 59 61 60 61 62 61 62 60 58 58 59 59 58 55 53 51 51 50 47 44 45 47 46 46 45 44 40 36 37 43 46 47 49 51 51 53 54 48 47 57 61 60 56 54 53 53 51 46 43 41 43 46 46 44 nan nan nan nan nan nan nan nan nan nan nan nan nan nan nan nan nan nan nan nan nan nan nan nan nan nan
56 56 57 57 58 58 59 59 61 61 61 59 58 57 59 59 58 60 58 54 49 49 56 55 51 49 46 45 45 43 39 35 34 41 41 42 41 43 44 47 49 51 47 50 56 56 53 51 49 49 48 48 46 43 42 41 45 48 44 42 nan nan nan nan nan nan nan nan nan nan nan nan nan nan nan nan nan nan nan nan nan nan nan nan nan
54 54 55 56 56 57 59 60 nan nan nan nan nan nan nan nan nan nan nan nan nan nan nan nan nan 45 47 45 42 35 33 33 39 42 42 44 43 41 41 42 45 47 54 64 61 53 48 47 44 45 46 46 45 43 43 43 42 44 45 47 45 nan nan nan nan nan nan nan nan nan nan nan nan nan nan nan nan nan nan nan nan nan nan nan nan
nan nan nan nan nan nan nan nan nan nan nan nan nan nan nan nan nan nan nan nan nan nan nan nan nan 42 41 40 43 44 37 35 43 45 44 43 43 41 40 41 47 62 59 58 55 48 44 42 43 42 44 44 41 42 43 42 42 42 44 46 45 45 nan nan nan nan nan nan nan nan nan nan nan nan nan nan nan nan nan nan nan nan nan nan nan
nan nan nan nan nan nan nan nan nan nan nan nan nan nan nan nan nan nan nan nan nan nan 48 42 37 nan 38 36 35 38 38 39 39 42 42 42 42 41 39 43 58 61 63 59 50 46 43 41 39 40 43 43 43 44 43 43 42 42 43 43 43 44 45 nan nan nan nan nan nan nan nan nan nan nan nan nan nan nan nan nan nan nan nan nan nan
nan nan nan nan nan nan nan nan nan nan nan nan nan nan nan nan nan nan nan nan nan 53 48 40 36 35 35 35 35 35 36 40 40 39 39 41 41 40 51 60 63 59 57 52 50 44 43 40 38 38 41 43 44 45 45 44 44 44 43 41 42 45 47 nan nan nan nan nan nan nan nan nan nan nan nan nan nan nan nan nan nan nan nan nan nan
nan nan nan nan nan nan nan nan nan nan nan nan nan nan nan nan nan nan nan nan nan nan nan nan 38 38 38 38 37 37 38 38 39 39 41 41 52 64 62 57 58 54 50 50 48 44 42 40 38 38 42 44 45 47 45 45 46 46 43 42 45 48 51 52 nan nan nan nan nan nan nan nan nan nan nan nan nan nan nan nan nan nan nan nan nan
36 39 nan nan nan nan nan nan nan nan nan nan nan nan nan nan nan nan nan nan nan nan nan nan nan nan 34 37 38 39 39 38 40 47 48 55 61 60 55 50 49 51 51 49 46 42 40 38 37 38 43 44 46 46 45 45 45 44 42 43 46 50 52 nan nan nan nan nan nan nan nan nan nan nan nan nan nan nan nan nan nan nan nan nan nan
nan 36 37 nan nan nan nan nan nan nan nan nan nan nan nan nan nan nan nan nan nan nan nan nan nan nan nan 47 47 51 48 46 52 56 55 52 53 52 46 47 47 51 52 48 43 39 37 36 36 38 43 46 46 46 46 44 44 43 42 43 47 51 52 54 53 nan nan nan nan nan nan nan nan nan nan nan nan nan nan nan nan nan nan nan nan
37 37 36 34 33 32 nan nan nan nan nan nan nan nan nan nan nan nan nan nan nan nan 37 42 nan 47 50 55 55 52 57 60 65 63 59 58 53 45 44 46 49 48 44 42 41 39 36 35 36 38 41 45 45 44 44 44 44 44 44 44 47 49 nan nan nan nan nan nan nan nan nan nan nan nan nan nan nan nan nan nan nan nan nan nan nan
nan 35 39 37 32 27 23 23 23 24 nan nan nan nan nan nan nan nan 38 38 38 39 43 46 47 46 51 56 57 56 59 56 53 52 53 50 48 46 47 48 47 45 42 40 41 40 37 36 37 40 43 45 43 44 45 43 43 43 45 47 nan nan nan nan nan nan nan nan nan nan nan nan nan nan nan nan nan nan nan nan nan nan nan nan nan
nan 26 31 36 31 30 28 25 26 25 nan nan nan nan nan nan nan 35 37 39 40 43 44 45 47 51 56 56 53 52 52 50 49 51 53 50 47 45 46 44 44 45 44 42 43 43 40 38 40 44 45 45 44 44 45 44 44 46 47 47 nan nan nan nan nan nan nan nan nan nan nan nan nan nan nan nan nan nan nan nan nan nan nan nan nan
nan nan 26 30 30 29 30 31 31 31 nan nan 37 39 40 41 42 43 46 47 48 50 54 57 58 56 53 51 48 49 50 48 48 49 51 50 47 44 41 37 38 41 43 44 44 43 42 40 42 44 44 43 43 45 45 45 47 48 47 46 nan nan nan nan nan nan nan nan nan nan nan nan nan nan nan nan nan nan nan nan nan nan nan nan nan
nan nan 23 26 30 30 31 34 32 34 37 38 42 43 44 46 48 50 52 53 54 56 56 57 55 54 54 55 51 50 52 53 52 52 52 51 48 45 44 44 43 45 46 43 42 42 42 42 42 44 44 43 43 43 46 47 nan nan nan nan 50 nan nan nan nan nan nan nan nan nan nan nan nan nan nan nan nan nan nan nan nan nan nan nan nan
nan nan nan nan nan nan nan nan nan 35 38 41 42 43 47 49 51 52 54 55 56 56 56 56 54 52 52 54 52 53 52 51 52 51 52 52 50 50 49 49 50 51 49 45 43 43 43 42 42 43 46 46 46 47 48 49 49 48 48 49 49 50 52 nan nan nan nan nan nan nan nan nan nan nan nan nan nan nan nan nan nan nan nan nan nan
nan nan nan nan nan nan nan 30 nan 35 nan 39 41 43 45 46 49 52 54 55 55 55 55 54 51 51 50 51 52 54 54 54 53 53 54 53 51 51 51 52 52 51 49 46 44 45 45 44 44 44 48 49 50 51 50 49 49 49 50 50 49 51 52 nan nan nan nan nan nan nan nan nan nan nan nan nan nan nan nan nan nan nan nan nan nan
nan nan nan nan nan nan nan nan nan nan nan 37 39 42 44 44 45 47 49 51 53 54 53 52 50 50 51 52 53 53 54 53 52 51 52 52 52 50 50 51 50 48 47 46 45 46 47 47 48 49 49 50 51 49 47 46 47 49 50 52 54 53 50 nan nan nan nan nan nan nan nan nan nan nan nan nan nan nan nan nan nan nan nan nan nan
nan nan nan nan nan nan nan nan nan nan nan nan nan nan nan nan nan nan nan nan nan nan nan 52 52 52 nan nan nan nan nan nan nan nan nan nan nan nan nan 52 nan nan nan 46 44 43 45 47 49 49 50 50 49 47 45 45 46 47 48 nan nan nan nan nan nan nan nan nan nan nan nan nan nan nan nan nan nan nan nan nan nan nan nan nan nan
nan nan nan nan nan nan nan nan nan nan nan nan nan nan nan nan nan nan nan nan nan nan nan nan nan nan nan nan nan nan nan 53 53 53 53 nan nan nan nan nan nan nan nan nan nan nan nan nan nan nan nan nan nan nan nan nan nan nan nan nan nan nan nan nan nan nan nan nan nan nan nan nan nan nan nan nan nan nan nan nan nan nan nan nan nan
nan nan nan nan nan nan nan nan nan nan nan nan nan nan nan nan nan nan nan nan nan nan nan nan nan nan nan nan nan nan nan nan nan nan nan nan nan nan nan nan nan nan nan nan nan nan nan nan nan nan nan nan nan nan nan nan nan nan nan nan nan nan nan nan nan nan nan nan nan nan nan nan nan nan nan nan nan nan nan nan nan nan nan nan nan
nan nan nan nan nan nan nan nan nan nan nan nan nan nan nan nan nan nan nan nan nan nan nan nan nan nan nan nan nan nan nan nan nan nan nan nan nan nan nan nan nan nan nan nan nan nan nan nan nan nan nan nan nan nan nan nan nan nan nan nan nan nan nan nan nan nan nan nan nan nan nan nan nan nan nan nan nan nan nan nan nan nan nan nan nan
nan nan nan nan nan nan nan nan nan nan nan nan nan nan nan nan nan nan nan nan nan nan nan nan nan nan nan nan nan nan nan nan nan nan nan nan nan nan nan nan nan nan nan nan nan nan nan nan nan nan nan nan nan nan nan nan nan nan nan nan nan nan nan nan nan nan nan nan nan nan nan nan nan nan nan nan nan nan nan nan nan nan nan nan nan
nan nan nan nan nan nan nan nan nan nan nan nan nan nan nan nan nan nan nan nan nan nan nan nan nan nan nan nan nan nan nan nan nan nan nan nan nan nan nan nan nan nan nan nan nan nan nan nan nan nan nan nan nan nan nan nan nan nan nan nan nan nan nan nan nan nan nan nan nan nan nan nan nan nan nan nan nan nan nan nan nan nan nan nan nan
Wind_Direction
234 230 232 232 236 244 246 244 244 241 238 237 237 236 237 242 245 244 243 247 245 234 221 217 221 223 230 239 248 251 254 258 264 272 275 277 281 292 299 306 311 313 314 315 317 323 329 334 335 322 320 321 319 316 318 321 323 320 314 314 319 318 322 nan nan nan nan nan nan nan nan nan nan nan nan nan nan nan nan nan nan nan nan nan nan
239 238 237 238 243 242 241 239 240 241 240 239 239 232 228 234 241 246 246 250 251 242 232 227 226 223 222 231 240 245 248 256 264 271 274 274 277 284 295 304 309 310 310 314 316 319 323 329 330 322 320 319 314 314 315 316 319 320 319 316 318 315 320 nan nan nan nan nan nan nan nan nan nan nan nan nan nan nan nan nan nan nan nan nan nan
244 242 242 245 247 245 239 234 236 240 241 239 236 233 227 229 238 244 244 244 246 244 241 238 234 229 223 226 233 239 245 250 258 268 271 271 274 281 292 301 307 308 309 313 314 316 318 324 328 322 316 315 314 312 313 314 318 321 321 nan nan nan nan nan nan nan nan nan nan nan nan nan nan nan nan nan nan nan nan nan nan nan nan nan nan
247 247 247 247 249 248 245 239 235 235 237 237 235 234 233 231 234 238 239 240 244 244 245 244 241 239 239 241 241 240 242 244 250 262 269 266 267 278 288 296 302 305 308 310 311 313 318 319 322 321 317 315 313 311 311 312 315 nan nan nan nan nan nan nan nan nan nan nan nan nan nan nan nan nan nan nan nan nan nan nan nan nan nan nan nan
247 247 248 247 246 248 247 244 240 235 232 235 237 237 237 235 235 237 238 241 244 248 249 249 248 248 253 261 258 251 248 246 246 254 260 259 261 271 284 292 297 300 303 307 307 311 313 317 317 318 318 316 314 312 311 314 nan nan nan nan nan nan nan nan nan nan nan nan nan nan nan nan nan nan nan nan nan nan nan nan nan nan nan nan nan
245 244 243 243 242 244 243 242 243 241 235 233 236 237 237 235 235 236 240 244 247 251 254 254 253 254 256 259 259 256 254 253 251 253 259 260 258 263 276 286 292 295 297 301 304 307 310 312 313 316 318 317 316 313 nan nan nan nan nan nan nan nan nan nan nan nan nan nan nan nan nan nan nan nan nan nan nan nan nan nan nan nan nan nan nan
242 242 239 239 238 237 237 236 236 241 240 235 234 235 233 231 231 233 237 240 245 250 254 256 256 258 261 260 255 249 249 253 257 259 259 259 259 261 270 278 284 287 291 296 300 303 306 308 310 314 318 318 315 314 nan nan nan nan nan nan nan nan nan nan nan nan nan nan nan nan nan nan nan nan nan nan nan nan nan nan nan nan nan nan nan
239 240 239 237 236 235 237 237 235 237 242 243 242 239 235 234 231 230 233 236 238 246 252 254 253 254 263 262 249 240 242 248 256 260 259 259 258 259 265 273 279 283 286 289 294 299 303 305 307 311 316 317 315 nan nan nan nan nan nan nan nan nan nan nan nan nan nan nan nan nan nan nan nan nan nan nan nan nan nan nan nan nan nan nan nan
238 239 238 238 237 236 236 237 239 243 247 248 247 246 242 242 240 235 233 233 234 240 246 250 251 252 256 256 245 238 241 246 252 257 258 259 261 262 264 270 277 280 282 285 289 295 298 301 303 308 314 317 nan nan nan nan nan nan nan nan nan nan nan nan nan nan nan nan nan nan nan nan nan nan nan nan nan nan nan nan nan nan nan nan nan
237 239 238 237 238 239 239 238 241 245 246 246 246 245 242 241 242 239 234 233 234 239 244 248 249 249 251 250 247 245 242 242 251 266 267 265 267 265 265 269 276 279 280 282 285 290 295 297 301 311 316 319 nan nan nan nan nan nan nan nan nan nan nan nan nan nan nan nan nan nan nan nan nan nan nan nan nan nan nan nan nan nan nan nan nan
235 238 238 235 237 241 241 241 244 246 245 243 242 241 239 237 238 238 237 235 235 237 241 246 246 245 247 248 249 249 246 244 258 267 277 282 272 270 270 271 276 277 277 281 286 289 291 295 296 304 310 315 nan nan nan nan nan nan nan nan nan nan nan nan nan nan nan nan nan nan nan nan nan nan nan nan nan nan nan nan nan nan nan nan nan
234 236 237 236 238 240 236 237 243 244 240 236 234 233 231 230 231 234 238 238 236 235 237 241 244 245 246 248 251 252 251 254 266 267 274 280 277 270 268 269 272 274 275 279 281 284 289 292 294 296 302 nan nan nan nan nan nan nan nan nan nan nan nan nan nan nan nan nan nan nan nan nan nan nan nan nan nan nan nan nan nan nan nan nan nan
234 235 236 239 241 240 237 236 236 235 231 226 225 225 225 223 224 228 234 237 237 238 238 239 243 247 249 252 254 257 256 264 270 271 271 275 280 273 265 267 270 272 274 278 279 282 286 289 292 294 298 nan nan nan nan nan nan nan nan nan nan nan nan nan nan nan nan nan nan nan nan nan nan nan nan nan nan nan nan nan nan nan nan nan nan
232 235 237 239 238 235 235 239 241 242 238 227 219 218 220 217 217 221 225 231 236 239 241 243 245 249 252 253 253 256 260 269 278 276 272 274 279 275 265 267 269 271 273 276 277 282 286 290 292 293 296 nan nan nan nan nan nan nan nan nan nan nan nan nan nan nan nan nan nan nan nan nan nan nan nan nan nan nan nan nan nan nan nan nan nan
230 231 233 235 236 232 228 230 235 240 242 235 226 225 218 212 212 217 222 231 238 242 245 247 248 251 253 254 254 256 257 271 275 273 271 277 281 276 264 263 264 266 270 273 277 281 286 289 292 295 297 nan nan nan nan nan nan nan nan nan nan nan nan nan nan nan nan nan nan nan nan nan nan nan nan nan nan nan nan nan nan nan nan nan nan
228 228 227 227 229 229 229 229 228 231 234 231 229 234 230 216 216 220 223 227 234 238 241 245 249 252 253 256 257 257 255 267 270 271 273 277 280 268 261 260 262 265 268 271 274 278 283 288 290 292 296 nan nan nan nan nan nan nan nan nan nan nan nan nan nan nan nan nan nan nan nan nan nan nan nan nan nan nan nan nan nan nan nan nan nan
223 223 222 222 225 228 228 228 229 230 231 229 228 233 234 227 226 229 231 233 235 237 243 248 250 252 253 252 255 254 253 262 269 272 274 276 270 263 259 253 251 253 264 274 277 278 282 287 289 289 293 nan nan nan nan nan nan nan nan nan nan nan nan nan nan nan nan nan nan nan nan nan nan nan nan nan nan nan nan nan nan nan nan nan nan
220 219 218 219 222 226 228 228 229 232 231 226 225 230 234 236 237 237 239 242 239 237 241 248 251 251 252 252 253 253 252 257 265 268 273 275 269 260 256 261 272 277 272 271 275 278 283 292 289 288 292 297 nan nan nan nan nan nan nan nan nan nan nan nan nan nan nan nan nan nan nan nan nan nan nan nan nan nan nan nan nan nan nan nan nan
221 218 217 218 220 223 225 225 227 230 228 222 223 231 237 240 239 237 237 239 237 235 238 244 249 250 249 250 253 254 251 251 258 264 271 273 266 255 257 265 269 269 269 272 273 276 281 287 294 293 294 298 nan nan nan nan nan nan nan nan nan nan nan nan nan nan nan nan nan nan nan nan nan nan nan nan nan nan nan nan nan nan nan nan nan
224 222 220 220 220 222 223 224 224 226 227 226 228 233 237 237 237 237 236 236 234 234 237 242 248 249 247 246 247 251 250 246 250 261 265 267 267 258 259 265 267 270 272 272 273 274 281 284 290 298 300 300 302 nan nan nan nan nan nan nan nan nan nan nan nan nan nan nan nan nan nan nan nan nan nan nan nan nan nan nan nan nan nan nan nan
227 225 224 224 224 225 225 226 226 224 224 227 232 235 235 235 236 237 238 237 235 235 237 240 244 245 244 242 242 244 245 242 243 253 256 260 264 262 260 266 265 264 267 271 274 280 283 284 287 297 301 300 301 303 nan nan nan nan nan nan nan nan nan nan nan nan nan nan nan nan nan nan nan nan nan nan nan nan nan nan nan nan nan nan nan
230 228 228 228 230 231 231 230 231 230 229 231 235 237 236 236 236 238 239 241 240 239 238 238 240 240 240 239 238 237 238 239 238 243 251 256 263 267 261 264 266 265 265 269 274 278 283 285 287 293 300 300 301 301 304 nan nan nan nan nan nan nan nan nan nan nan nan nan nan nan nan nan nan nan nan nan nan nan nan nan nan nan nan nan nan
232 232 232 232 231 234 236 238 237 235 236 237 239 239 238 237 235 237 240 241 242 242 242 241 239 237 236 237 236 234 234 236 242 244 250 257 263 265 268 264 265 265 269 272 276 277 278 283 287 293 297 300 300 300 301 305 nan nan nan nan nan nan nan nan nan nan nan nan nan nan nan nan nan nan nan nan nan nan nan nan nan nan nan nan nan
nan 233 233 233 234 233 235 237 238 239 241 240 239 239 238 236 237 238 241 242 243 243 242 240 236 234 235 236 237 237 237 239 242 250 253 261 263 267 267 265 266 265 268 268 271 274 276 280 283 290 293 298 300 298 299 300 299 307 nan nan nan nan nan nan nan nan nan nan nan nan nan nan nan nan nan nan nan nan nan nan nan nan nan nan nan
nan 233 232 232 233 233 234 236 238 239 240 241 240 238 237 236 236 235 238 240 242 242 238 235 232 232 235 236 237 239 240 242 243 248 257 262 265 266 266 266 265 269 268 268 271 274 277 282 284 288 293 297 300 297 292 296 301 299 301 300 nan nan nan nan nan nan nan nan nan nan nan nan nan nan nan nan nan nan nan nan nan nan nan nan nan
nan nan nan 234 234 233 234 235 237 239 241 240 240 239 240 237 237 235 236 239 241 239 234 231 230 232 234 236 236 239 242 243 244 247 250 256 259 263 267 267 268 272 274 271 273 276 280 282 283 284 288 289 282 279 283 288 296 299 299 nan nan nan nan nan nan nan nan nan nan nan nan nan nan nan nan nan nan nan nan nan nan nan nan nan nan
nan nan nan nan 235 235 236 235 235 237 238 239 238 238 237 236 235 233 234 237 237 234 231 231 234 235 236 237 238 240 243 244 245 246 249 250 252 256 258 258 261 259 255 257 258 264 268 269 271 274 274 281 281 280 281 285 285 281 282 288 nan nan nan nan nan nan nan nan nan nan nan nan nan nan nan nan nan nan nan nan nan nan nan nan nan
234 234 235 nan 238 239 239 239 239 238 239 241 240 236 234 234 233 231 233 234 233 229 229 233 238 241 240 239 240 242 243 245 247 250 252 253 252 255 258 261 262 265 266 265 265 263 263 264 267 267 267 270 273 274 279 282 285 284 285 290 nan nan nan nan nan nan nan nan nan nan nan nan nan nan nan nan nan nan nan nan nan nan nan nan nan
234 234 235 236 239 241 243 244 242 241 240 239 240 240 238 234 232 230 230 233 234 234 234 236 242 246 245 243 244 244 244 247 252 260 260 261 260 257 257 260 261 262 266 271 265 259 262 265 267 268 268 272 276 281 285 286 284 281 284 nan nan nan nan nan nan nan nan nan nan nan nan nan nan nan nan nan nan nan nan nan nan nan nan nan nan
234 236 237 238 240 242 244 246 245 244 242 241 239 233 226 230 235 235 231 232 237 243 245 244 247 250 248 244 247 249 247 247 250 259 262 264 265 266 265 267 270 268 270 275 270 266 267 270 272 275 276 276 280 283 285 287 284 280 278 283 nan nan nan nan nan nan nan nan nan nan nan nan nan nan nan nan nan nan nan nan nan nan nan nan nan
232 235 237 239 242 244 245 246 nan nan nan nan nan nan nan nan nan nan nan nan nan nan nan nan nan 251 249 243 244 248 245 243 249 257 260 262 264 264 262 265 269 270 264 259 258 266 268 269 271 274 277 278 283 286 286 287 289 286 279 279 284 nan nan nan nan nan nan nan nan nan nan nan nan nan nan nan nan nan nan nan nan nan nan nan nan
nan nan nan nan nan nan nan nan nan nan nan nan nan nan nan nan nan nan nan nan nan nan nan nan nan 244 247 247 243 242 242 242 250 258 262 264 265 266 266 266 264 263 267 271 263 264 269 273 272 276 278 280 284 284 283 285 287 288 284 281 283 289 nan nan nan nan nan nan nan nan nan nan nan nan nan nan nan nan nan nan nan nan nan nan nan
nan nan nan nan nan nan nan nan nan nan nan nan nan nan nan nan nan nan nan nan nan nan 239 240 240 nan 244 244 248 250 250 252 255 257 260 263 264 263 266 266 262 265 263 261 262 265 268 272 276 276 280 283 282 280 281 282 284 285 283 285 287 290 293 nan nan nan nan nan nan nan nan nan nan nan nan nan nan nan nan nan nan nan nan nan nan
nan nan nan nan nan nan nan nan nan nan nan nan nan nan nan nan nan nan nan nan nan 233 234 238 241 244 243 243 243 243 241 246 252 257 259 259 261 259 254 252 260 268 270 268 267 268 269 271 273 277 280 280 279 281 281 282 282 280 281 281 280 283 288 nan nan nan nan nan nan nan nan nan nan nan nan nan nan nan nan nan nan nan nan nan nan
nan nan nan nan nan nan nan nan nan nan nan nan nan nan nan nan nan nan nan nan nan nan nan nan 240 244 243 240 239 240 242 244 250 256 258 256 254 255 258 258 258 262 262 259 262 264 267 270 273 275 276 277 278 279 283 283 283 284 283 281 278 281 286 292 nan nan nan nan nan nan nan nan nan nan nan nan nan nan nan nan nan nan nan nan nan
226 229 nan nan nan nan nan nan nan nan nan nan nan nan nan nan nan nan nan nan nan nan nan nan nan nan 248 242 244 245 243 243 243 246 249 252 259 264 255 257 262 265 266 263 262 264 265 267 269 272 274 275 275 277 279 281 284 284 281 278 278 280 286 nan nan nan nan nan nan nan nan nan nan nan nan nan nan nan nan nan nan nan nan nan nan
nan 226 229 nan nan nan nan nan nan nan nan nan nan nan nan nan nan nan nan nan nan nan nan nan nan nan nan 236 239 242 243 242 244 249 253 258 265 263 261 263 265 265 264 262 262 264 267 267 271 272 273 274 276 277 278 282 283 281 277 275 276 279 285 288 288 nan nan nan nan nan nan nan nan nan nan nan nan nan nan nan nan nan nan nan nan
217 220 221 224 229 232 nan nan nan nan nan nan nan nan nan nan nan nan nan nan nan nan 233 233 nan 235 238 239 247 248 245 248 249 249 252 254 254 257 260 261 263 267 268 263 263 268 273 272 272 275 275 275 277 279 281 281 280 279 277 276 277 282 nan nan nan nan nan nan nan nan nan nan nan nan nan nan nan nan nan nan nan nan nan nan nan
nan 221 219 217 219 223 227 228 228 226 nan nan nan nan nan nan nan nan 233 233 233 232 231 231 231 231 236 242 241 245 249 246 249 252 256 256 257 258 261 264 268 272 273 269 268 272 273 272 273 276 277 276 278 279 280 281 279 278 278 276 nan nan nan nan nan nan nan nan nan nan nan nan nan nan nan nan nan nan nan nan nan nan nan nan nan
nan 224 218 217 216 216 219 223 223 226 nan nan nan nan nan nan nan 232 233 234 234 234 233 232 230 231 236 240 242 243 244 245 245 250 253 254 255 259 264 269 272 273 274 273 272 273 275 275 275 277 278 278 279 281 281 281 280 279 278 277 nan nan nan nan nan nan nan nan nan nan nan nan nan nan nan nan nan nan nan nan nan nan nan nan nan
nan nan 225 223 218 215 216 216 220 221 nan nan 226 227 227 229 230 232 233 233 233 233 232 231 231 229 232 235 242 244 243 243 244 247 250 253 254 258 264 272 279 279 272 267 266 268 272 275 275 275 274 276 278 279 278 278 279 280 281 279 nan nan nan nan nan nan nan nan nan nan nan nan nan nan nan nan nan nan nan nan nan nan nan nan nan
nan nan 219 223 222 220 222 219 216 221 227 229 230 232 233 233 233 233 234 235 235 236 238 235 234 233 231 232 241 238 237 238 242 247 250 253 257 261 261 263 271 275 273 269 268 270 274 277 277 275 274 274 276 277 275 276 nan nan nan nan 284 nan nan nan nan nan nan nan nan nan nan nan nan nan nan nan nan nan nan nan nan nan nan nan nan
nan nan nan nan nan nan nan nan nan 224 224 226 228 230 233 235 236 236 237 236 237 237 238 238 237 236 235 233 239 240 239 240 241 245 249 252 256 259 262 265 267 270 269 267 269 273 275 275 274 273 274 275 276 275 278 277 277 278 280 282 283 283 285 nan nan nan nan nan nan nan nan nan nan nan nan nan nan nan nan nan nan nan nan nan nan
nan nan nan nan nan nan nan 218 nan 225 nan 227 230 231 231 233 235 237 238 238 239 239 240 240 240 240 240 239 239 240 241 240 242 244 246 249 253 258 262 266 268 270 268 267 267 270 274 274 273 272 273 275 276 277 276 276 275 275 276 278 279 279 281 nan nan nan nan nan nan nan nan nan nan nan nan nan nan nan nan nan nan nan nan nan nan
nan nan nan nan nan nan nan nan nan nan nan 228 231 234 234 234 237 238 239 241 240 241 241 241 241 241 240 240 240 242 243 245 247 249 250 251 253 257 260 263 269 273 272 270 268 269 270 273 275 275 274 274 274 274 274 273 273 273 276 281 280 279 279 nan nan nan nan nan nan nan nan nan nan nan nan nan nan nan nan nan nan nan nan nan nan
nan nan nan nan nan nan nan nan nan nan nan nan nan nan nan nan nan nan nan nan nan nan nan 240 240 240 nan nan nan nan nan nan nan nan nan nan nan nan nan 260 nan nan nan 265 265 267 270 274 277 277 276 274 272 270 271 275 276 277 281 nan nan nan nan nan nan nan nan nan nan nan nan nan nan nan nan nan nan nan nan nan nan nan nan nan nan
nan nan nan nan nan nan nan nan nan nan nan nan nan nan nan nan nan nan nan nan nan nan nan nan nan nan nan nan nan nan nan 250 252 253 254 nan nan nan nan nan nan nan nan nan nan nan nan nan nan nan nan nan nan nan nan nan nan nan nan nan nan nan nan nan nan nan nan nan nan nan nan nan nan nan nan nan nan nan nan nan nan nan nan nan nan
nan nan nan nan nan nan nan nan nan nan nan nan nan nan nan nan nan nan nan nan nan nan nan nan nan nan nan nan nan nan nan nan nan nan nan nan nan nan nan nan nan nan nan nan nan nan nan nan nan nan nan nan nan nan nan nan nan nan nan nan nan nan nan nan nan nan nan nan nan nan nan nan nan nan nan nan nan nan nan nan nan nan nan nan nan
nan nan nan nan nan nan nan nan nan nan nan nan nan nan nan nan nan nan nan nan nan nan nan nan nan nan nan nan nan nan nan nan nan nan nan nan nan nan nan nan nan nan nan nan nan nan nan nan nan nan nan nan nan nan nan nan nan nan nan nan nan nan nan nan nan nan nan nan nan nan nan nan nan nan nan nan nan nan nan nan nan nan nan nan nan
nan nan nan nan nan nan nan nan nan nan nan nan nan nan nan nan nan nan nan nan nan nan nan nan nan nan nan nan nan nan nan nan nan nan nan nan nan nan nan nan nan nan nan nan nan nan nan nan nan nan nan nan nan nan nan nan nan nan nan nan nan nan nan nan nan nan nan nan nan nan nan nan nan nan nan nan nan nan nan nan nan nan nan nan nan
nan nan nan nan nan nan nan nan nan nan nan nan nan nan nan nan nan nan nan nan nan nan nan nan nan nan nan nan nan nan nan nan nan nan nan nan nan nan nan nan nan nan nan nan nan nan nan nan nan nan nan nan nan nan nan nan nan nan nan nan nan nan nan nan nan nan nan nan nan nan nan nan nan nan nan nan nan nan nan nan nan nan nan nan nan